sat.trackr.live / text

‹ back to catalog

STARLINK-6097

NORAD 57105 · 2023-090E

PAYLOAD ACTIVE UNKNOWN

§ Identity

Operator
Country
US
Launch date
2023-06-23
Launch site
AFETR
Launch vehicle
Mass (kg)
RCS (m²)

Purposes: comms

External: N2YO · Heavens-Above · Gunter

§ Orbital elements

Epoch: 2026-09-20T11:58:51.070080Z

Period
94.27 min
Inclination
43.0010°
Eccentricity
0.0000868
Mean motion
15.27561091 rev/d
Perigee alt
482.5 km
Apogee alt
483.7 km
Semi-major
6,861.2 km
B*
5.4879e-5
RAAN
261.5759°
Arg perigee
279.4379°
Mean anomaly
80.6375°
Rev number
18,012

§ Raw data

STARLINK-60971 57105U 23090E   26263.49920220  .00001248  00000+0  54879-4 0  99902 57105  43.0010 261.5759 0000868 279.4379  80.6375 15.27561091180124

JSON: /api/v1/satellites/57105 · /tle

For live sub-satellite position, see the globe view (requires WebGL).

§ Visibility from observer

Set your observer location to see the next 7 days of passes ≥ 10°. The values pass through the URL so the page stays shareable.

No JS? Fill the form by hand. The geolocation button needs JavaScript.